Preview of NWS' New Version of Forecast
This preview is not operational and should not be used for support decisions.
Latest weather observations around

Shreveport, Shreveport Downtown Airport (KDTN)

Using English Units (Switch to International System of Units)
Date/ Time (CDT) Wind (mph) Vis. (mi) Weather Sky Cond. Temp (°F) Rel. Humidity Wind Chill (°F) Heat Index (°F) Pressure Precip. (in)
Air Dwpt 6 hour Altimeter (inHg) Sea level (inHg) 1 hr 3 hr 6 hr
Max Min
Jun 19 03:53 5 10 Clear CLR 79 72     79%   82 29.81 29.8      
Jun 19 02:53 Calm 10 Clear CLR 79 72     79%   82 29.84 29.83      
Jun 19 01:53 E 3 10 Clear CLR 77 71     82%   78 29.85 29.84      
Jun 19 00:53 SSE 3 10 Clear CLR 80 71     74%   84 29.87 29.85      
Jun 18 23:53 SE 6 10 Clear CLR 81 70     69%   84 29.87 29.85      
Jun 18 22:53 SSE 5 10 Clear CLR 81 70     69%   84 29.86 29.85      
Jun 18 21:53 Calm 10 Clear CLR 82 70     67%   86 29.85 29.83      
Jun 18 20:53 Calm 10 Clear CLR 84 70     63%   88 29.83 29.82      
Jun 18 19:53 WSW 5 10 Clear CLR 88 68     52%   92 29.84 29.83      
Jun 18 18:53 SW 6 10 Clear CLR 89 68     50%   93 29.83 29.82      
Jun 18 17:53 WSW 8 10 Partly Cloudy SCT050 90 69     50%   95 29.85 29.83      
Jun 18 16:53 WNW 6 10 Mostly Clear FEW060 91 68     47%   95 29.86 29.85      
Jun 18 15:53 WNW 6 10 Clear CLR 90 68     49%   94 29.87 29.86      
Jun 18 14:53 NNE 6 10 Partly Cloudy SCT055 88 66     48%   90 29.89 29.87      
Jun 18 13:53 NE 5 10 Mostly Cloudy BKN048 BKN060 89 68     50%   93 29.9 29.89      
Jun 18 12:53 NW 5 10 Mostly Clear FEW041 88 68     52%   92 29.92 29.91      
Jun 18 11:53 WSW 8 10 Partly Cloudy SCT040 SCT050 86 68     55%   89 29.94 29.93      
Jun 18 10:53 W 5 10 Clear CLR 85 67     55%   88 29.94 29.93      
Jun 18 09:53 NNW 8 10 Clear CLR 83 69     63%   87 29.94 29.93      
Jun 18 08:53 3 10 Clear CLR 80 71     74%   84 29.93 29.92      
Jun 18 07:53 WNW 5 10 Mostly Clear FEW038 FEW049 76 71     85%   77 29.93 29.92      
Jun 18 06:53 W 5 10 Mostly Clear FEW043 74 71     91%   75 29.92 29.91      
Jun 18 05:53 Calm 10 Mostly Cloudy BKN041 BKN049 74 70     87%   75 29.91 29.9      
Jun 18 04:53 Calm 10 Clear CLR 75 71     88%   76 29.89 29.88      
Jun 18 03:53 Calm 10 Clear CLR 75 71     88%   76 29.89 29.88      
Jun 18 02:53 W 3 10 Partly Cloudy FEW042 SCT050 76 71     85%   77 29.9 29.89      
Jun 18 01:53 W 3 10 Clear CLR 77 72     84%   78 29.91 29.9      
Jun 18 00:53 SW 3 10 Mostly Cloudy SCT039 BKN048 BKN065 77 72     84%   78 29.91 29.9      
Jun 17 23:53 S 6 10 Mostly Clear FEW055 78 71     79%   79 29.9 29.9      
Jun 17 22:53 SSE 3 10 Partly Cloudy SCT033 79 71     77%   82 29.9 29.9      
Jun 17 21:55 Calm 10 Mostly Cloudy FEW031 BKN050 78 71     79%   79 29.89        
Jun 17 21:53 Calm 10 Partly Cloudy FEW031 SCT050 78 71     79%   79 29.89 29.88      
Jun 17 20:53 Calm 10 Clear CLR 79 71     77%   82 29.87 29.86      
Jun 17 19:53 Calm 10 Mostly Clear FEW031 84 70     63%   88 29.86 29.85      
Jun 17 18:53 Calm 10 Mostly Clear FEW070 84 70     63%   88 29.86 29.85      
Jun 17 17:53 NW 5 10 Cloudy OVC055 83 70     65%   87 29.87 29.86      
Jun 17 16:53 W 5 10 Cloudy OVC047 84 70     63%   88 29.87 29.86      
Jun 17 15:53 WSW 9 10 Partly Cloudy SCT035 SCT041 86 70     59%   91 29.89 29.88      
Jun 17 14:53 S 7 10 Partly Cloudy SCT032 85 69     59%   89 29.89 29.88      
Jun 17 13:53 Calm 10 Mostly Cloudy SCT032 BKN110 83 69     63%   87 29.91 29.91      
Jun 17 12:53 Calm 10 Mostly Cloudy SCT028 BKN035 BKN120 83 70     65%   87 29.93 29.93      
Jun 17 11:53 NW 3 10 Partly Cloudy FEW031 SCT120 81 68     65%   84 29.94 29.94      
Jun 17 10:53 3 10 Clear CLR 80 67     64%   82 29.94 29.93      
Jun 17 09:53 NE 5 10 Clear CLR 77 67     71%   78 29.93 29.92      
Jun 17 08:53 Calm 10 Clear CLR 73 66     79%   74 29.93 29.92      
Jun 17 07:53 Calm 10 Clear CLR 71 66     84%   72 29.91 29.9      
Jun 17 06:53 Calm 10 Clear CLR 69 66     90%     29.91 29.9      
Jun 17 05:53 Calm 10 Clear CLR 69 65     87%     29.91 29.91      
Jun 17 05:21 E 3 10 Partly Cloudy SCT025 70 65     84%     29.9        
Jun 17 04:53 N 6 10 Mostly Cloudy BKN028 69 66     90%     29.88 29.88      
Jun 17 03:53 N 3 10 Clear CLR 69 66     90%     29.87 29.86      
Jun 17 02:53 Calm 10 Mostly Clear FEW110 70 66     87%     29.86 29.85      
Jun 17 01:53 Calm 10 Clear CLR 71 65     81%   72 29.86 29.85      
Jun 17 00:53 WNW 8 10 Clear   73 63     71%   73 29.84 29.83     0
Jun 16 23:53 SSE 18 10 Clear CLR 72 63     73%   72 29.8 29.8      
Jun 16 22:53 S 6 10 Clear CLR 70 66     87%     29.87 29.87 0    
Jun 16 21:53 WSW 6 10 Mostly Clear FEW100 70 65     84%     29.93 29.92 0 0  
Jun 16 20:53   10 Light Rain OVC090 72 65     79%   73 29.93 29.92 0    
Jun 16 19:53 WSW 8 10 Clear CLR 70 66     87%     29.9 29.89      
Jun 16 18:53 WSW 6 10 Clear CLR 70 66     87%     29.84 29.84 0   0
Jun 16 17:53 SSW 8 10 Light Rain FEW008 SCT080 BKN095 70 67     90%     29.9 29.9 0    
Jun 16 17:37 5 10 Light Rain FEW009 SCT055 BKN100 70 67     90%     29.91   0    
Jun 16 16:53 SSW 6 9 Light Rain SCT110 70 67     90%     29.94 29.93 0    
Jun 16 16:27 SSE 8 8 Light Rain SCT120 70 67     90%     29.95   0    
Jun 16 16:12 SSE 14 10 Light Rain FEW120 70 67     90%     29.93   0    
Jun 16 15:53 SSE 10 10 Light Rain SCT110 70 68     93%     29.94 29.93 0 0  
Jun 16 15:51 SSE 11 10 Light Rain SCT110 70 66     88%     29.94   0    
Jun 16 14:53 SSE 14 5 Rain and Fog/Mist SCT100 OVC120 70 67     90%     29.94 29.94 0    
Jun 16 14:25 SE 13 5 Rain and Fog/Mist SCT095 OVC110 70 67     90%     29.96   0    
Jun 16 14:04 SSE 9 5 Rain and Fog/Mist SCT095 OVC110 71 67     87%   72 29.97   0    
Jun 16 13:53 S 8 4 Thunderstorms and Rain and Fog/Mist SCT100 OVC110 71 68     90%   72 29.98 29.97 0    
Jun 16 13:43 S 10 1.5 Thunderstorms and Rain and Fog/Mist OVC110 71 67     87%   72 29.98   0    
Jun 16 12:53 SSE 9 8 Light Rain OVC100 73 68     84%   74 29.98 29.97 0   0
Jun 16 11:53 ENE 6 10 Light Rain BKN080 OVC100 72 67     84%   73 29.98 29.97 0    
Jun 16 10:53 Calm 10 Light Rain FEW050 BKN080 OVC100 71 67     87%   72 30 29.99 0    
Jun 16 10:40 NE 5 10 Light Rain FEW044 BKN060 OVC100 71 67     87%   72 30   0    
Jun 16 10:24 Calm 1.5 Rain and Fog/Mist FEW039 OVC065 71 67     87%   72 30.01   0    
Jun 16 09:53 N 8 10 Light Rain SCT039 OVC070 70 67     90%     30.01 30 0 0  
Jun 16 09:48 6 4 Light Rain and Fog/Mist SCT037 BKN065 OVC075 70 66     88%     30.01   0    
Jun 16 09:27 N 8 1 Heavy Rain and Fog/Mist BKN036 OVC055 70 66     87%     30.01   0    
Jun 16 09:21 NNE 8 0.5 Thunderstorms and Heavy Rain and Fog SCT029 OVC037 70 67     90%     30.01   0    
Jun 16 09:13 Calm 1.25 Thunderstorms and Heavy Rain and Fog/Mist OVC039 71 68     90%   72 30.01   0    
Jun 16 09:01 Calm 1 Heavy Rain and Fog/Mist SCT025 OVC040 71 68     90%   72 30   0    
Jun 16 08:53 N 6 2 Heavy Rain and Fog/Mist SCT025 OVC040 71 67     87%   72 30 29.99 0    
Jun 16 08:48 N 8 1 Rain and Fog/Mist SCT023 BKN034 OVC042 72 66     83%   72 29.99   0    
Jun 16 08:45 N 9 0.75 Heavy Rain and Fog/Mist BKN021 BKN034 OVC042 71 67     87%   72 29.99   0    
Jun 16 08:33 NNW 18 1.75 Rain SCT015 BKN023 OVC035 73 67     81%   74 29.97   0    
Jun 16 08:13 NW 11 10 Light Rain SCT013 BKN019 OVC070 77 69     77%   78 29.96   0    
Jun 16 07:53 WSW 7 10 Mostly Cloudy FEW019 BKN070 81 75     82%   87 29.95 29.93      
Jun 16 07:43 SW 9 10 Cloudy FEW014 SCT022 OVC065 80 74     82%   85 29.95        
Jun 16 07:33 SW 7 10 Cloudy FEW014 BKN022 OVC070 80 74     82%   85 29.94        
Jun 16 06:53 SSW 9 10 Partly Cloudy SCT110 80 74     82%   85 29.93 29.92      
Jun 16 05:53 SSW 10 10 Clear CLR 80 74     82%   85 29.9 29.89      
Jun 16 04:53 SSW 10 10 Mostly Clear FEW026 80 74     82%   85 29.91 29.9      
Jun 16 02:53 S 10 10 Mostly Cloudy SCT021 BKN032 81 74     79%   86 29.9 29.89      
May 15 10:53 6 10 Clear CLR 85 67     55%   88 30 29.99      
May 15 03:53 SW 7 10 Clear CLR 75 67     76%   76 29.93 29.92      
May 14 19:53 SSW 7 10 Clear   85 66     53%   87 29.89 29.88      
May 14 06:53 SE 3 10 Clear CLR 73 70     90%   74 30.02 30.01      
May 13 23:53 S 5 10 Clear CLR 80 70     71%   83 30 29.99      
May 12 13:53 SSW 10 10 Partly Cloudy SCT044 SCT060 87 68     53%   91 30.03 30.01      
May 12 08:26 S 9 10 Cloudy OVC010 74 70     87%   75 30.05        
May 11 21:53 SSE 9 10 Clear CLR 81 63     54%   82 29.96 29.95      
Jun 12 01:33 SE 9 10 Cloudy OVC010 78 73     85%   80 29.98        
Jun 10 14:53 S 9 10 Partly Cloudy SCT055 85 62     46%   86 29.95 29.94      
Jun 10 12:53 SE 9 10 Clear CLR 84 65     53%   86 29.97 29.96      
Jun 10 01:53 SE 3 10 Clear CLR 71 61     70%   71 29.91 29.9      
Jun 09 22:53 Calm 10 Clear CLR 71 61     70%   71 29.92 29.91      
Jun 08 23:53 Calm 10 Clear   68 59     73%     29.93 29.92      
Jun 08 13:53 NNE 8 10 Clear CLR 84 54     36%   83 29.98 29.97      
Jun 08 05:53 Calm 10 Clear CLR 63 58     84%     29.96 29.96      
Jun 07 13:53 NE 13 10 Clear CLR 86 62     45%   87 29.93 29.92      
Jun 05 14:53 SSW 3 10 Partly Cloudy SCT034 83 69     63%   87 29.72 29.72